ANZ635 NZAA-NZQN

Flight info

Callsign ANZ635
Flight time N/A
Altitude 34000
Route KAPAI Y320 DOVOT
Aircraft A320/M-SDE3FGHIRWY/LB1

Departure

Time 2026-04-30 22:51
Airport Auckland International Airport (NZAA)

Arrival

Time N/A
Airport Queenstown Airport (NZQN)
Time Latitude Longitude Altitude Speed Heading
2026-04-30 22:23 -37.00787 174.79115 25 ft 0 kts 250°
2026-04-30 22:28 -37.00793 174.79094 25 ft 6 kts 250°
2026-04-30 22:28 -37.00813 174.79025 27 ft 10 kts 250°
2026-04-30 22:29 -37.00896 174.78720 27 ft 15 kts 249°
2026-04-30 22:29 -37.00935 174.78588 25 ft 17 kts 251°
2026-04-30 22:30 -37.01156 174.78107 27 ft 19 kts 251°
2026-04-30 22:31 -37.01304 174.77569 27 ft 25 kts 251°
2026-04-30 22:32 -37.01351 174.77400 26 ft 0 kts 251°
2026-04-30 22:45 -37.01475 174.77104 28 ft 15 kts 188°
2026-04-30 22:45 -37.01501 174.77098 29 ft 0 kts 191°
2026-04-30 22:48 -37.01556 174.77085 26 ft 0 kts 191°
2026-04-30 22:49 -37.01674 174.76919 30 ft 15 kts 252°
2026-04-30 22:49 -37.01712 174.76790 26 ft 3 kts 70°
2026-04-30 22:50 -37.01288 174.78324 26 ft 142 kts 71°
2026-04-30 22:51 -37.00516 174.81108 520 ft 193 kts 72°
2026-04-30 22:51 -36.99656 174.84231 1961 ft 190 kts 71°
2026-04-30 22:52 -36.99200 174.85892 2301 ft 214 kts 70°
2026-04-30 22:52 -36.98321 174.89078 3039 ft 248 kts 71°
2026-04-30 22:53 -36.97164 174.93228 4667 ft 258 kts 71°
2026-04-30 22:53 -36.95962 174.97535 6322 ft 266 kts 71°
2026-04-30 22:53 -36.95361 174.99736 7142 ft 269 kts 75°
2026-04-30 22:54 -36.96154 175.04145 8652 ft 276 kts 133°
2026-04-30 22:55 -37.01588 175.07078 10488 ft 309 kts 161°
2026-04-30 22:55 -37.06117 175.07115 11303 ft 342 kts 192°
2026-04-30 22:56 -37.10316 175.04154 12615 ft 356 kts 220°
2026-04-30 22:56 -37.15782 174.97753 14528 ft 364 kts 221°
2026-04-30 22:57 -37.19504 174.93383 15625 ft 369 kts 221°
2026-04-30 22:57 -37.23284 174.88946 16718 ft 375 kts 221°
2026-04-30 22:58 -37.27116 174.84446 17798 ft 380 kts 221°
2026-04-30 22:59 -37.32972 174.77546 19351 ft 389 kts 221°
2026-04-30 22:59 -37.38945 174.70493 20757 ft 398 kts 221°